Showing default

KOMPSAT 3A, 40536

Orbit data source: Space-Track

KOMPSAT 3A, 40536 is a payload satellite owned by KARI (KR) in SSO that was launched on Wed, 25 Mar 2015 UTC via a DNEPR launch vehicle from the Orenburg, Russia (OREN). Payload-class satellites include a variety of spacecraft equipped with specific instruments for various scientific and technological missions. These include communications satellites like Starlink; space stations such as the ISS; scientific satellites like the Hubble; Earth observation satellites from companies like Planet Labs, Umbra, and HawkEye 360; GPS; miniature CubeSats for education and research; and military/defense satellites.

Loading next visibility...
Identifier
40536, 2015-014A
Orbit
SSO
Country
Flag of UnknownUnknown / SKOR
Related business
Manufacturer
AP Aerospace
Mission
Operational Civil Imaging
Bus & Motor
KOMPSAT, AOCS?
Mass
1,112 kg wet, 1,039 kg dry
Launch date (UTC)
2015-03-25 (11 years ago)
Launch vehicle
DNEPR
Launch site
Orenburg, Russia (OREN)
Object type
Payload
Rocket body
Debris
Shape & HBR
Hex Cyl + 3 Pan, 3.3 m
Radar Cross Section
9.888 m², Large (>1 m²)

Expand to show TLE details & history
Last TLE update: 8 hours ago

TLE from 8 hours ago
0 KOMPSAT 3A
1 40536U 15014A   25352.57766038  .00016379  00000-0  35908-3 0  9992
2 40536  97.6787 327.2473 0005298 113.8141 246.3662 15.44154502593855
Epoch: 2025-12-18T13:51Z
TLE epoch observation values (Epoch: 2025-12-18T13:51:49.856Z)
Latitude
-0.00008°
Longitude
31.85841°
Altitude
438.427 km
Speed
7.648 km/s
True Right ascension
21h 48m 59s
True Declination
0° 00' 00"
Sunlit
Object was in daylight at epoch
Visualization orbit readout
Latitude
Unknown
Longitude
Unknown
Altitude
Unknown
Speed
Unknown
Apparent Right ascension
Unknown
Apparent Declination
Unknown
Sunlit
N/A
Visualization observer readout
Local Sidereal Time
20:54:12
Azimuth
Unknown
Elevation
Unknown
Doppler factor
Unknown
Orbital elements
Apogee altitude
434.417 km
Perigee altitude
427.202 km
Semi-major axis
6,808.946 km
Eccentricity
0.00053
Inclination
97.6787°
RAAN
327.2473°
Arg. of periapsis
113.8141°
True anomaly
246.3106°
Mean anomaly
246.3662°
Eccentric anomaly
246.3384°
Mean motion
3.86299 °/min
Orbital period
93.19 mins
BSTAR
0.00035908
Loading maneuver chart data...
Computing Atmospheric mass density...
Loading historical data...
Loading historical data...
Loading historical data...
Loading historical data...
Loading historical data...
Loading historical data...
Loading historical data...
Other satellites on launch #14 in the year 2015 (2015-03-25 UTC)

Documentation

Showing up to 5 results
|